User: anonymous   Login
Location: *
(44.1392°N, 4.8079°E)
Time: 20:59:32
(UTC+00:00)
Language:

CZ-4B DEB - Orbit

View from above orbital plane
View from above orbital plane
View from above satellite
View from above satellite

Ground track
Ground track

The orbit data is extracted from the following two-line orbital elements,

1 35404U 02024J   22023.84661260 -.00000011  00000-0  15909-4 0  9997
2 35404  98.9903  38.7945 0053513 117.9193   5.7144 14.19501018 14130
Epoch (UTC): 23 January 2022 20:19:07
Eccentricity: 0.0053513
inclination: 98.9903°
perigee height: 788 km
apogee height: 865 km
right ascension of ascending node: 38.7945°
argument of perigee: 117.9193°
revolutions per day: 14.19501018
mean anomaly at epoch: 5.7144°
orbit number at epoch: 1413

The dashed part of the orbit path shows where the satellite is in the earth's shadow,  

DLR